Location: Newark
(7.0858°N, 171.3717°E)
Time: 17:36:34
(UTC+00:00)

Altair - Pass Details

Date: 02 December 2020
Orbit: 1501 x 1682 km, 47.2° (Epoch: 20 January)

Event Time Altitude Azimuth Distance (km) Brightness Sun altitude
Exits shadow 17:42:40 15° 289° (WNW) 3,339 8.6 -12.3°
Maximum altitude 17:49:36 36° 231° (SW) 2,290 8.2 -10.6°
Drops below altitude 10° 17:58:12 10° 168° (SSE) 3,822 10.1 -8.7°
Sets 18:01:44 0° 159° (SSE) 4,835 10.8 -7.8°
